Precipitable_Water
0.51 0.62 0.68 0.61 0.38 0.39 0.30 0.31 0.43 0.41 0.48 0.66 0.75 0.70 0.66 0.78 0.74 0.67 1.28 1.38 1.31 1.27 1.26 1.17 1.00 1.02 1.30 1.55 1.81 1.93 1.91 1.96 2.00 2.01 1.95 1.91 1.88 1.86 1.92 1.98 1.89 1.87 1.87 1.89 1.86 1.81 1.63 1.46 1.25
0.48 0.45 0.51 0.48 0.29 0.24 0.28 0.38 0.36 0.42 0.55 0.71 0.72 0.74 0.73 0.73 1.05 1.14 1.21 1.40 1.37 1.30 1.22 1.08 0.97 1.06 1.34 1.66 1.89 1.96 1.93 1.96 1.99 2.00 1.99 1.97 1.95 1.93 1.92 1.96 1.96 1.89 1.81 1.82 1.83 1.69 1.55 1.40 1.31
0.42 0.44 0.30 0.29 0.27 0.21 0.25 0.34 0.36 0.43 0.58 0.64 0.62 0.82 0.81 0.82 1.14 1.19 1.39 1.40 1.39 1.22 1.13 1.03 0.96 1.12 1.42 1.72 1.91 1.95 1.97 1.99 2.03 2.05 2.05 1.96 1.92 1.87 1.93 1.99 2.03 1.96 1.85 1.84 1.75 1.54 1.45 1.33 1.24
0.33 0.35 0.29 0.17 0.14 0.25 0.26 0.32 0.46 0.51 0.62 0.68 0.66 0.62 0.90 1.13 1.15 1.36 1.47 1.45 1.27 1.13 1.05 0.98 0.97 1.17 1.47 1.78 1.92 1.99 1.98 1.99 2.03 2.13 1.93 1.89 1.87 1.90 1.80 1.97 1.98 1.98 1.86 1.57 1.37 1.27 1.29 1.21 1.10
0.32 0.25 0.13 0.12 0.11 0.18 0.22 0.27 0.35 0.40 0.47 0.53 0.58 0.53 0.73 1.12 1.30 1.43 1.47 1.45 1.25 1.11 1.04 1.02 1.00 1.21 1.49 1.83 1.94 1.98 1.98 1.98 1.99 1.92 1.87 1.92 1.93 1.87 1.61 1.86 1.92 1.83 1.52 1.31 1.17 1.12 1.08 1.06 1.14
0.18 0.21 0.10 0.07 0.08 0.15 0.17 0.19 0.22 0.30 0.39 0.44 0.46 0.52 0.67 1.13 1.20 1.35 1.46 1.38 1.35 1.19 1.11 1.02 1.04 1.27 1.54 1.86 1.97 2.01 2.02 1.97 1.93 1.91 1.94 1.95 1.93 1.78 1.43 1.36 1.43 1.39 1.29 1.14 1.06 1.12 1.14 1.12 1.13
0.13 0.13 0.08 0.08 0.07 0.10 0.12 0.19 0.15 0.18 0.22 0.32 0.52 0.48 0.76 1.00 1.25 1.42 1.45 1.41 1.38 1.32 1.11 1.00 1.06 1.32 1.60 1.87 1.97 2.03 2.03 2.02 1.96 1.95 1.98 1.98 1.82 1.62 1.42 1.23 1.13 1.07 1.10 1.13 1.25 1.28 1.24 1.18 1.15
0.19 0.15 0.08 0.08 0.05 0.06 0.11 0.13 0.15 0.17 0.20 0.48 0.65 0.55 0.61 0.93 1.26 1.38 1.44 1.37 1.38 1.30 1.14 0.98 1.09 1.34 1.64 1.83 1.92 1.98 1.99 1.98 1.97 1.96 1.94 1.92 1.79 1.60 1.40 1.27 1.20 1.24 1.36 1.38 1.34 1.33 1.30 1.27 1.27
0.26 0.12 0.07 0.07 0.06 0.06 0.13 0.12 0.16 0.25 0.29 0.38 0.52 0.63 0.90 1.11 1.29 1.33 1.30 1.29 1.32 1.28 1.16 1.04 1.07 1.29 1.63 1.82 1.88 1.92 1.97 1.97 1.96 1.96 1.92 1.86 1.77 1.63 1.38 1.36 1.32 1.37 1.42 1.43 1.40 1.37 1.29 1.28 1.28
0.17 0.11 0.10 0.11 0.10 0.07 0.09 0.12 0.14 0.16 0.19 0.17 0.26 0.55 0.79 1.10 1.16 1.23 1.18 1.15 1.19 1.22 1.15 1.05 1.03 1.23 1.55 1.77 1.88 1.92 1.95 1.99 2.01 1.97 1.91 1.82 1.62 1.54 1.45 1.38 1.40 1.46 1.46 1.47 1.43 1.31 1.20 1.23 1.28
0.16 0.09 0.12 0.13 0.13 0.12 0.09 0.10 0.13 0.12 0.10 0.11 0.15 0.28 0.68 0.97 1.14 1.17 1.19 1.23 1.24 1.27 1.18 1.05 1.04 1.19 1.46 1.71 1.83 1.89 1.91 1.94 1.96 1.90 1.92 1.69 1.48 1.48 1.46 1.41 1.43 1.50 1.52 1.53 1.40 1.27 1.27 1.29 1.33
0.11 0.14 0.15 0.14 0.14 0.16 0.13 0.12 0.11 0.13 0.09 0.11 0.16 0.54 0.64 0.68 0.82 1.06 1.16 1.21 1.23 1.28 1.22 1.07 1.02 1.10 1.36 1.65 1.77 1.83 1.84 1.86 1.92 1.92 1.89 1.61 1.38 1.32 1.41 1.36 1.42 1.46 1.47 1.33 1.21 1.15 1.11 1.20 1.28
0.12 0.13 0.14 0.15 0.14 0.14 0.17 0.15 0.12 0.09 0.11 0.13 0.14 0.26 0.53 0.63 0.83 1.15 1.23 1.28 1.31 1.25 1.25 1.06 0.97 1.00 1.22 1.46 1.66 1.82 1.84 1.84 1.92 1.94 1.85 1.60 1.36 1.21 1.19 1.22 1.24 1.22 1.22 1.15 1.07 1.08 1.12 1.17 1.19
0.14 0.13 0.14 0.15 0.15 0.15 0.12 0.12 0.15 0.07 0.10 0.10 0.12 0.18 0.45 0.57 0.73 0.99 1.14 1.17 1.24 1.28 1.26 1.11 0.99 0.96 1.09 1.26 1.46 1.69 1.86 1.87 1.92 1.89 1.71 1.54 1.30 1.15 1.03 0.99 1.01 1.07 1.09 1.05 1.00 1.03 1.13 1.26 1.32
0.17 0.12 0.13 0.13 0.13 0.12 0.13 0.09 0.08 0.14 0.12 0.08 0.08 0.12 0.29 0.54 0.73 0.78 0.89 1.00 1.22 1.30 1.34 1.14 0.99 0.93 0.99 1.12 1.24 1.42 1.73 1.85 1.85 1.75 1.57 1.46 1.18 1.01 0.94 0.95 0.98 0.98 0.98 0.96 0.97 1.06 1.28 1.31 1.31
0.14 0.14 0.09 0.11 0.13 0.13 0.12 0.04 0.06 0.11 0.14 0.09 0.08 0.09 0.22 0.48 0.64 0.70 0.90 1.03 1.22 1.33 1.31 1.22 1.01 0.88 0.94 1.07 1.20 1.18 1.35 1.66 1.67 1.62 1.52 1.33 1.10 0.93 0.90 0.89 0.89 0.95 0.93 0.94 1.01 1.08 1.11 1.23 1.22
0.15 0.08 0.09 0.10 0.13 0.12 0.10 0.05 0.08 0.10 0.11 0.12 0.09 0.08 0.15 0.33 0.56 0.76 0.90 1.08 1.21 1.33 1.33 1.27 1.03 0.86 0.87 1.02 1.16 1.19 1.10 1.35 1.39 1.51 1.39 1.16 1.04 0.89 0.79 0.79 0.89 0.96 0.94 1.02 1.04 1.07 1.12 1.11 1.06
0.10 0.10 0.11 0.10 0.13 0.13 0.11 0.07 0.09 0.10 0.11 0.13 0.14 0.11 0.20 0.37 0.49 0.73 0.98 1.14 1.26 1.35 1.36 1.34 1.12 0.91 0.82 0.93 1.09 1.15 1.02 1.09 1.17 1.28 1.12 1.05 0.98 0.90 0.82 0.75 0.83 0.88 0.92 1.01 1.09 1.14 1.22 1.17 1.14
0.16 0.14 0.11 0.12 0.17 0.16 0.14 0.12 0.13 0.14 0.13 0.10 0.13 0.12 0.18 0.34 0.57 0.78 1.11 1.19 1.25 1.34 1.33 1.33 1.20 1.01 0.82 0.82 0.87 0.93 0.92 0.87 0.93 1.14 1.02 0.98 0.94 0.94 0.87 0.79 0.80 0.84 0.92 1.03 1.07 1.13 1.17 1.14 1.20
0.15 0.14 0.10 0.15 0.16 0.15 0.14 0.11 0.13 0.13 0.14 0.13 0.12 0.13 0.14 0.33 0.54 0.78 1.14 1.19 1.20 1.27 1.32 1.33 1.32 1.11 0.81 0.73 0.79 0.90 0.92 0.79 0.80 0.98 0.95 0.91 0.93 0.92 0.90 0.81 0.76 0.81 1.05 1.11 1.15 1.15 1.15 1.15 1.20
0.18 0.16 0.14 0.16 0.22 0.23 0.18 0.11 0.11 0.12 0.12 0.13 0.13 0.15 0.14 0.27 0.41 0.67 1.02 1.12 1.19 1.18 1.26 1.32 1.38 1.21 0.92 0.70 0.75 0.84 0.88 0.75 0.68 0.73 0.81 0.82 0.91 0.89 0.87 0.85 0.78 0.80 1.00 1.11 1.21 1.21 1.18 1.06 1.13
0.13 0.23 0.22 0.20 0.20 0.14 0.17 0.06 0.08 0.08 0.08 0.10 0.12 0.12 0.13 0.22 0.41 0.65 0.89 1.05 1.13 1.16 1.28 1.32 1.40 1.34 1.04 0.73 0.65 0.65 0.62 0.58 0.58 0.59 0.71 0.75 0.84 0.82 0.83 0.85 0.84 0.88 1.03 1.13 1.22 1.27 1.24 1.15 1.03
0.19 0.27 0.23 0.22 0.22 0.21 0.15 0.13 0.09 0.10 0.07 0.07 0.08 0.10 0.13 0.17 0.36 0.53 0.80 0.95 1.12 1.24 1.25 1.28 1.33 1.41 1.19 0.82 0.63 0.63 0.56 0.63 0.57 0.57 0.59 0.67 0.75 0.79 0.82 0.87 0.94 0.98 1.08 1.17 1.24 1.28 1.22 1.20 1.13
0.28 0.25 0.24 0.25 0.24 0.16 0.15 0.14 0.08 0.08 0.08 0.08 0.08 0.10 0.12 0.15 0.30 0.46 0.69 0.90 1.04 1.24 1.30 1.27 1.25 1.31 1.29 1.00 0.65 0.59 0.56 0.56 0.51 0.51 0.53 0.60 0.68 0.74 0.81 0.90 0.98 1.04 1.09 1.14 1.22 1.28 1.26 1.24 1.21
0.27 0.23 0.16 0.16 0.16 0.13 0.18 0.17 0.11 0.10 0.11 0.12 0.13 0.10 0.12 0.15 0.29 0.42 0.58 0.79 0.92 1.07 1.15 1.20 1.21 1.18 1.28 1.12 0.76 0.57 0.57 0.55 0.52 0.48 0.51 0.57 0.64 0.71 0.76 0.92 0.99 1.05 1.10 1.15 1.25 1.23 1.25 1.25 1.18
0.24 0.25 0.18 0.12 0.14 0.16 0.20 0.14 0.11 0.15 0.18 0.23 0.26 0.32 0.26 0.22 0.26 0.44 0.53 0.62 0.78 0.95 1.07 1.14 1.17 1.14 1.22 1.23 0.95 0.63 0.59 0.57 0.57 0.53 0.52 0.56 0.65 0.76 0.86 0.91 1.00 1.05 1.11 1.20 1.27 1.25 1.22 1.21 1.21
0.23 0.20 0.28 0.21 0.20 0.20 0.18 0.16 0.24 0.35 0.33 0.40 0.41 0.41 0.36 0.37 0.37 0.36 0.55 0.67 0.68 0.80 0.94 1.01 1.12 1.14 1.16 1.20 1.20 0.86 0.66 0.61 0.58 0.58 0.58 0.61 0.73 0.80 0.87 0.95 1.00 1.07 1.13 1.25 1.29 1.23 1.21 1.22 1.23
0.24 0.29 0.18 0.21 0.15 0.15 0.16 0.19 0.23 0.30 0.35 0.38 0.39 0.35 0.37 0.40 0.41 0.44 0.43 0.61 0.69 0.75 0.83 0.96 1.07 1.10 1.08 1.17 1.22 1.11 1.00 0.84 0.70 0.65 0.62 0.63 0.73 0.80 0.81 0.90 0.99 1.06 1.16 1.21 1.29 1.28 1.26 1.21 1.21
0.16 0.19 0.22 0.23 0.22 0.17 0.17 0.21 0.35 0.34 0.40 0.40 0.41 0.41 0.42 0.44 0.48 0.51 0.52 0.51 0.67 0.76 0.87 0.93 0.99 1.05 1.09 1.17 1.20 1.16 1.10 1.10 1.06 0.98 0.80 0.80 0.83 0.81 0.90 0.92 1.00 1.08 1.16 1.25 1.21 1.25 1.29 1.22 1.24
0.15 0.17 0.23 0.17 0.17 0.21 0.22 0.22 0.39 0.40 0.42 0.45 0.43 0.46 0.50 0.55 0.57 0.61 0.59 0.59 0.64 0.72 0.82 0.85 0.92 0.98 1.02 1.12 1.23 1.25 1.27 1.21 1.17 1.16 1.14 1.03 0.99 1.06 1.06 1.04 1.06 1.16 1.23 1.31 1.32 1.27 1.30 1.33 1.35
Wind_Speed
18 17 16 15 14 13 12 12 11 11 10 11 9 9 10 10 6 4 5 7 6 7 8 7 5 5 7 7 8 11 14 17 19 22 23 22 22 20 17 16 17 17 17 17 18 18 17 18 18
16 17 17 16 16 16 14 13 14 14 12 11 11 11 10 8 7 7 7 9 9 8 8 7 6 6 7 7 9 12 16 18 21 23 23 22 20 17 16 16 17 17 18 18 17 17 19 19 17
16 16 17 17 17 19 16 15 17 15 15 13 12 11 9 6 6 6 6 6 8 9 8 7 7 7 8 9 11 15 18 20 23 27 24 22 20 17 14 14 17 21 19 17 19 19 21 19 18
16 17 16 19 22 16 16 13 12 13 12 14 13 13 11 9 9 9 7 7 8 8 8 8 8 8 9 10 13 17 20 22 22 24 23 21 20 18 17 18 20 24 21 21 21 22 22 20 19
16 17 19 20 21 19 19 18 17 17 15 14 15 16 14 12 10 8 9 9 8 7 7 8 8 10 11 12 15 19 22 22 23 24 22 22 20 19 19 20 21 24 23 22 23 23 22 21 19
17 18 19 22 25 20 21 22 22 22 21 20 17 19 16 14 13 11 11 10 8 8 8 9 10 11 12 14 17 21 22 23 23 22 22 21 20 19 20 21 22 23 23 23 23 22 21 19 18
19 19 21 21 22 20 21 21 25 26 24 22 19 18 14 14 13 12 13 12 9 9 9 11 11 12 14 16 18 21 22 23 22 21 22 21 21 20 21 22 23 23 23 23 22 20 19 18 17
21 21 21 21 21 21 19 22 23 23 23 19 18 17 16 16 16 14 14 13 11 10 10 12 13 14 16 18 19 21 22 22 22 22 21 20 20 20 23 23 23 23 23 22 20 18 17 16 15
22 24 26 24 21 19 17 18 19 22 24 21 20 19 18 16 16 16 16 15 14 12 12 13 14 15 17 20 21 21 22 21 22 22 21 21 20 23 24 23 23 23 22 20 18 17 16 15 14
23 25 28 24 24 25 22 21 21 21 22 26 25 21 19 20 19 19 20 17 17 15 14 15 16 17 19 20 22 23 22 21 22 22 22 21 21 23 24 24 23 22 21 19 17 16 15 14 14
23 28 26 26 27 26 26 26 25 27 29 28 27 25 22 22 23 22 22 20 19 17 16 16 17 18 19 20 23 23 22 21 22 21 21 24 22 23 23 24 24 23 21 19 17 16 15 14 14
26 27 28 26 26 28 29 28 30 30 32 28 28 24 25 24 25 26 26 24 21 21 19 18 19 20 20 22 23 24 23 23 23 23 23 23 23 23 23 24 24 22 20 19 17 15 16 15 13
28 28 29 29 29 30 30 31 31 35 32 31 31 31 29 27 26 26 26 25 23 23 22 21 21 22 22 22 23 24 25 25 24 24 24 24 23 23 23 23 23 22 20 19 17 17 15 14 12
27 29 29 30 30 30 31 32 29 36 33 34 34 35 32 31 28 27 27 27 26 25 24 23 23 23 23 23 24 25 26 26 26 25 25 25 24 24 23 23 22 21 20 19 17 16 14 13 12
28 31 32 32 33 32 29 33 37 32 32 33 33 35 35 34 32 31 30 29 29 28 26 25 25 25 25 25 25 25 26 28 27 27 27 26 26 25 24 23 22 21 20 19 17 15 14 13 12
30 32 31 25 24 24 25 36 31 27 29 32 34 35 36 36 35 32 32 31 32 30 28 26 26 27 27 26 26 26 27 28 28 28 28 28 27 26 25 23 22 21 20 19 17 16 15 13 11
28 33 34 32 33 33 32 36 25 23 29 32 32 32 35 37 37 34 32 32 33 33 31 28 28 29 29 28 27 27 28 29 30 30 29 29 28 27 26 24 23 22 20 19 18 16 15 13 12
29 31 33 32 26 30 36 43 34 32 31 29 29 33 33 36 37 36 34 33 33 34 32 30 29 30 30 30 29 28 29 29 31 32 31 31 29 29 27 25 24 22 21 20 18 17 15 13 12
32 36 40 39 36 37 38 41 37 34 34 34 33 35 34 36 35 36 36 35 34 35 34 32 31 31 31 31 30 30 29 30 31 32 33 33 31 30 28 26 24 23 22 21 19 18 16 14 13
32 35 41 38 33 37 40 47 43 41 39 37 37 37 37 36 36 37 39 37 36 36 36 35 33 32 33 32 32 31 31 31 32 33 34 34 32 30 29 27 26 24 22 21 20 19 18 15 15
28 31 35 38 36 38 39 47 44 42 39 39 39 40 38 39 39 40 41 40 37 36 37 37 35 33 34 33 33 33 32 32 34 35 35 35 34 32 30 28 27 26 24 23 22 21 19 17 17
26 21 29 33 31 31 28 36 38 39 43 41 40 41 43 42 41 41 43 42 41 38 37 38 37 35 35 35 35 35 34 33 34 35 35 35 35 33 32 30 28 27 25 24 23 22 22 19 19
25 28 30 31 31 33 38 33 37 35 41 43 42 41 43 44 43 43 45 44 42 40 37 36 38 37 37 36 36 36 36 35 35 35 36 36 35 34 33 32 30 28 27 26 25 24 24 22 21
23 23 26 26 27 31 36 33 33 34 39 38 40 41 42 45 45 44 45 44 43 42 39 38 38 38 38 38 38 38 37 37 36 37 37 36 35 35 34 33 32 30 29 28 27 27 26 25 23
20 18 15 14 17 28 28 29 39 31 30 32 33 40 39 42 44 44 44 45 45 45 43 40 40 39 39 39 40 39 39 39 39 38 38 37 36 36 35 34 32 31 30 29 28 28 28 28 26
19 16 13 13 14 18 19 24 30 31 32 33 30 29 31 33 39 42 44 45 45 46 45 44 42 40 40 39 39 40 40 39 39 39 39 39 37 36 36 35 34 32 31 31 30 30 29 29 28
15 18 20 16 24 17 16 20 19 15 20 22 25 26 27 30 32 38 40 45 45 46 47 46 43 42 41 40 40 39 40 40 40 39 40 40 39 37 37 37 35 34 33 32 31 31 31 30 30
14 16 10 10 9 11 14 12 9 16 17 19 21 23 26 28 31 35 38 42 45 47 47 47 45 44 42 41 41 41 40 40 39 40 41 40 40 39 39 38 38 36 35 34 33 33 33 32 32
14 11 10 10 10 9 7 2 8 10 12 15 20 21 23 27 28 32 36 38 44 45 46 47 46 44 44 44 43 42 43 42 41 40 41 40 40 40 39 40 39 38 37 36 36 35 34 34 34
13 13 11 9 8 10 9 2 10 6 8 11 13 16 20 22 25 27 32 35 40 44 45 46 45 44 44 45 45 44 42 43 44 42 40 40 40 40 40 39 39 39 38 38 37 37 37 37 36
Wind_Direction
242 241 243 249 251 254 251 252 260 257 261 259 254 261 276 289 254 247 239 233 231 210 205 209 208 199 191 189 185 178 174 170 168 165 163 160 160 161 163 160 158 156 158 156 154 153 150 148 141
239 239 244 248 250 249 248 251 254 256 260 260 255 265 280 268 246 262 250 247 226 208 203 207 207 199 187 181 175 172 170 166 164 162 160 159 162 163 166 172 171 167 163 161 161 159 155 150 147
238 243 244 246 247 247 252 255 261 262 255 254 255 257 267 258 248 252 260 230 205 202 206 210 208 191 177 171 166 165 164 162 161 160 157 156 155 153 154 166 175 165 154 156 156 157 157 151 147
244 246 250 249 247 249 250 253 264 261 254 248 254 258 249 257 256 253 238 208 195 202 208 204 192 180 172 168 163 160 159 157 156 157 156 156 153 148 142 135 135 155 149 144 144 145 147 147 144
247 250 249 252 252 252 250 253 257 255 257 254 253 253 252 250 257 248 226 207 203 205 204 196 187 177 171 166 162 160 159 157 156 157 156 156 154 149 145 142 139 144 144 142 142 141 141 142 141
250 252 252 252 253 251 254 255 253 253 254 258 254 252 252 250 249 238 212 208 214 213 212 198 187 179 173 168 162 162 160 158 159 159 160 158 157 152 150 146 144 144 145 143 142 141 141 143 141
251 251 254 257 258 258 254 252 253 254 254 254 250 248 247 243 240 224 217 219 219 214 205 194 188 181 176 171 165 164 163 163 163 164 162 160 157 157 154 151 149 148 146 144 143 143 142 143 143
251 255 254 255 258 261 256 251 250 245 248 245 242 244 246 244 228 224 217 217 219 214 205 194 188 183 178 175 170 168 167 167 167 164 164 165 163 161 160 157 154 152 150 148 148 147 146 146 147
250 253 254 253 253 257 254 250 251 250 244 243 241 244 246 234 225 222 216 218 213 211 205 196 190 186 181 177 175 171 170 170 170 169 166 164 166 166 163 161 159 157 156 154 154 154 153 151 150
250 254 255 255 256 258 257 252 252 250 244 246 245 245 239 228 223 218 214 213 212 208 204 198 193 188 185 181 179 177 176 174 174 173 175 172 167 169 169 167 164 163 160 159 158 160 157 155 154
255 256 257 256 255 258 258 253 251 251 251 247 245 250 235 225 223 221 218 216 214 210 207 201 195 191 188 186 183 181 180 178 176 173 175 170 166 164 169 171 171 168 166 164 160 158 161 158 156
261 260 259 263 261 258 257 257 252 247 249 248 243 237 230 229 228 223 221 219 217 213 208 203 198 194 192 189 188 188 186 182 179 179 173 169 168 167 165 166 169 170 171 168 167 164 161 161 161
262 264 263 264 264 261 259 255 254 250 248 248 244 240 234 232 228 224 222 218 215 211 209 205 201 198 195 193 191 190 189 187 184 182 179 176 172 170 169 169 170 171 171 172 168 165 164 165 165
265 264 265 265 263 263 259 257 252 248 248 247 245 241 235 230 226 222 219 219 216 212 210 206 204 200 198 196 194 192 191 190 188 187 183 181 178 176 175 174 174 175 175 173 173 173 173 172 170
267 267 265 263 262 258 254 255 245 253 247 245 243 238 235 229 226 224 223 220 215 213 210 208 205 202 200 199 197 195 195 193 192 190 186 185 183 181 180 179 179 178 177 177 178 178 176 174 174
268 266 265 259 255 257 245 253 252 247 243 243 242 239 233 229 226 227 223 222 216 213 211 209 207 204 203 201 200 198 197 196 195 192 191 188 186 185 183 183 182 181 181 183 183 182 179 179 181
264 265 263 264 259 258 247 254 251 252 244 243 241 239 233 230 228 225 223 220 215 212 211 209 208 206 204 203 203 201 199 199 198 196 194 190 189 188 186 186 186 186 186 186 185 184 184 185 186
272 266 264 262 262 258 253 251 251 253 253 246 242 238 233 228 225 224 221 217 214 212 211 210 209 207 205 204 204 203 201 200 199 198 196 194 192 190 189 190 190 189 189 188 187 187 188 189 189
274 270 268 264 263 265 259 257 254 253 252 249 243 239 235 229 226 222 219 216 215 213 212 211 209 208 206 205 204 203 202 200 200 199 198 196 194 193 193 193 193 193 194 194 196 194 194 196 197
273 271 267 269 263 258 258 256 256 252 249 245 242 239 235 230 224 220 215 214 214 212 213 211 211 209 208 207 205 205 203 203 202 200 199 198 197 197 197 197 198 198 198 199 201 202 202 208 208
276 270 270 267 268 261 262 259 254 247 245 242 239 238 234 227 223 218 215 214 213 214 213 212 211 211 209 208 206 205 204 203 203 202 200 200 200 201 202 203 203 203 204 206 207 208 211 215 219
286 277 279 273 268 260 251 259 251 247 242 238 237 233 231 226 224 219 215 215 215 215 214 213 212 211 210 208 207 206 205 205 204 202 202 203 204 206 207 207 208 209 210 212 215 218 220 221 223
281 284 279 270 264 260 250 253 249 240 237 234 232 232 229 225 223 220 216 215 215 213 213 212 212 212 211 210 208 208 207 207 206 204 204 205 207 209 210 211 212 214 216 219 222 223 223 226 228
294 289 284 267 255 250 246 242 248 240 238 237 233 230 228 224 221 220 218 216 215 214 214 213 212 213 213 212 211 209 209 207 207 207 207 208 209 211 213 214 217 219 222 225 227 227 228 230 234
323 309 292 264 253 255 252 244 244 243 241 238 236 230 228 224 221 220 218 216 215 214 214 213 214 214 214 214 212 211 211 210 209 209 210 210 212 214 215 216 218 221 224 228 229 229 231 233 237
317 310 290 286 275 271 245 244 247 243 244 241 237 231 226 222 221 221 220 217 216 215 214 215 215 215 214 214 213 213 212 212 212 212 213 214 215 217 218 219 222 224 227 230 231 232 234 236 239
319 322 294 272 262 270 252 252 240 255 243 237 229 225 221 221 221 221 222 218 216 215 215 215 216 216 215 215 214 214 213 214 214 215 216 217 218 219 220 222 224 226 229 231 233 234 236 238 241
324 323 313 303 277 256 255 252 262 272 254 238 229 228 226 225 225 224 222 220 217 216 216 216 216 217 216 216 216 216 215 215 216 216 217 218 219 221 223 224 226 229 231 233 234 236 238 240 243
329 330 329 297 272 270 280 183 314 268 248 238 230 227 227 227 226 225 223 221 217 217 216 215 216 217 217 218 217 217 218 217 217 218 219 219 221 222 225 225 228 231 233 235 237 238 239 242 245
318 318 324 314 282 271 256 264 360 319 246 234 225 222 222 222 224 224 222 222 217 215 215 214 215 218 219 219 219 219 219 219 219 221 220 221 222 225 226 228 231 232 235 237 239 239 241 244 247